TimeCST,TemperatureF,Dew PointF,Humidity,Sea Level PressureIn,VisibilityMPH,Wind Direction,Wind SpeedMPH,Gust SpeedMPH,PrecipitationIn,Events,Conditions,WindDirDegrees,DateUTC
12:53 AM,28.0,25.0,88,29.87,9.0,NNE,10.4,-,N/A,,Overcast,20,2013-12-04 06:53:00
1:15 AM,28.4,24.8,86,29.82,2.0,NNE,11.5,-,0.00,Snow,Light Snow,20,2013-12-04 07:15:00
1:25 AM,28.4,24.8,86,29.83,1.5,NNE,12.7,-,0.00,Snow,Light Snow,30,2013-12-04 07:25:00
1:44 AM,28.4,24.8,86,29.82,0.8,NNE,12.7,-,0.01,Snow,Light Snow,30,2013-12-04 07:44:00
1:53 AM,28.0,25.0,88,29.87,0.8,NNE,13.8,-,0.01,Snow,Light Snow,30,2013-12-04 07:53:00
2:09 AM,28.4,24.8,86,29.83,1.0,NNE,11.5,-,0.01,Snow,Light Snow,30,2013-12-04 08:09:00
2:53 AM,27.0,24.1,89,29.88,1.2,NNE,11.5,-,0.02,Snow,Light Snow,30,2013-12-04 08:53:00
3:53 AM,26.1,23.0,88,29.87,1.0,NNE,10.4,-,0.02,Snow,Light Snow,20,2013-12-04 09:53:00
4:53 AM,25.0,21.0,85,29.85,1.0,NNE,16.1,-,0.01,Snow,Light Snow,30,2013-12-04 10:53:00
5:10 AM,24.8,21.2,86,29.81,0.8,NNE,15.0,-,0.01,Snow,Light Snow,30,2013-12-04 11:10:00
5:34 AM,24.8,21.2,86,29.80,1.2,NNE,15.0,-,0.02,Snow,Light Snow,30,2013-12-04 11:34:00
5:53 AM,24.1,19.9,84,29.83,1.8,NNE,13.8,-,0.02,Snow,Light Snow,30,2013-12-04 11:53:00
6:53 AM,23.0,19.9,88,29.83,1.2,NNE,15.0,-,0.01,Snow,Light Snow,30,2013-12-04 12:53:00
7:34 AM,23.0,19.4,86,29.78,0.8,NNE,11.5,-,0.01,Snow,Light Snow,30,2013-12-04 13:34:00
7:53 AM,23.0,19.0,85,29.83,1.0,NNE,10.4,-,0.02,Snow,Light Snow,20,2013-12-04 13:53:00
8:22 AM,21.2,17.6,86,29.79,0.5,North,11.5,-,0.00,Fog-Snow,Light Snow,10,2013-12-04 14:22:00
8:53 AM,21.0,17.1,85,29.84,0.5,North,11.5,-,0.01,Fog-Snow,Light Snow,10,2013-12-04 14:53:00
9:53 AM,19.9,16.0,85,29.83,0.5,North,13.8,-,0.02,Fog-Snow,Snow,360,2013-12-04 15:53:00
10:01 AM,19.4,15.8,86,29.77,0.2,North,13.8,-,0.00,Fog-Snow,Snow,10,2013-12-04 16:01:00
10:13 AM,19.4,15.8,86,29.78,0.2,North,15.0,-,0.01,Fog-Snow,Snow,360,2013-12-04 16:13:00
10:29 AM,19.4,15.8,86,29.77,0.5,North,17.3,-,0.01,Fog-Snow,Snow,360,2013-12-04 16:29:00
10:36 AM,19.4,15.8,86,29.77,0.2,North,17.3,-,0.01,Fog-Snow,Snow,360,2013-12-04 16:36:00
10:53 AM,19.0,15.1,85,29.81,0.2,North,17.3,-,0.02,Fog-Snow,Snow,360,2013-12-04 16:53:00
11:39 AM,19.4,14.0,80,29.72,0.2,North,20.7,-,0.01,Snow,Heavy Snow,360,2013-12-04 17:39:00
11:53 AM,19.0,14.0,81,29.78,0.2,North,20.7,-,0.01,Snow,Heavy Snow,360,2013-12-04 17:53:00
12:00 PM,19.4,14.0,80,29.73,0.2,North,18.4,-,0.00,Snow,Heavy Snow,360,2013-12-04 18:00:00
12:31 PM,19.4,14.0,80,29.74,0.2,North,18.4,-,0.01,Snow,Heavy Snow,350,2013-12-04 18:31:00
12:40 PM,19.4,14.0,80,29.73,0.5,North,17.3,-,0.01,Snow,Snow,350,2013-12-04 18:40:00
12:53 PM,19.0,14.0,81,29.76,0.5,North,19.6,-,0.01,Snow,Snow,350,2013-12-04 18:53:00
12:59 PM,17.6,14.0,86,29.72,0.2,North,18.4,-,0.00,Fog-Snow,Heavy Snow,350,2013-12-04 18:59:00
1:13 PM,17.6,14.0,86,29.69,0.5,North,19.6,-,0.00,Fog-Snow,Snow,360,2013-12-04 19:13:00
1:53 PM,17.1,12.9,84,29.73,0.5,North,20.7,-,0.01,Fog-Snow,Snow,350,2013-12-04 19:53:00
2:53 PM,17.1,12.0,81,29.74,0.5,NNW,23.0,-,0.00,Snow,Snow,340,2013-12-04 20:53:00
3:49 PM,15.8,12.2,86,29.70,0.5,NNW,25.3,32.2,0.00,Fog-Snow,Light Snow,340,2013-12-04 21:49:00
3:53 PM,16.0,12.0,84,29.75,0.8,NNW,26.5,32.2,0.00,Snow,Light Snow,340,2013-12-04 21:53:00
4:22 PM,15.8,10.4,79,29.71,0.8,NNW,24.2,-,0.00,Snow,Light Snow,340,2013-12-04 22:22:00
4:32 PM,15.8,10.4,79,29.71,1.0,NNW,26.5,-,0.00,Snow,Light Snow,340,2013-12-04 22:32:00
4:45 PM,15.8,10.4,79,29.69,0.8,NNW,23.0,-,0.00,Snow,Light Snow,340,2013-12-04 22:45:00
4:53 PM,15.1,10.9,84,29.75,0.8,NNW,23.0,-,0.00,Snow,Light Snow,340,2013-12-04 22:53:00
5:11 PM,15.8,10.4,79,29.70,0.5,NNW,24.2,31.1,0.00,Fog-Snow,Snow,340,2013-12-04 23:11:00
5:46 PM,14.0,10.4,86,29.69,0.2,NNW,23.0,-,0.00,Fog,Light Freezing Fog,330,2013-12-04 23:46:00
5:53 PM,14.0,10.0,84,29.75,0.2,NNW,23.0,31.1,0.00,Fog,Light Freezing Fog,330,2013-12-04 23:53:00
6:02 PM,14.0,10.4,86,29.71,0.5,NW,24.2,-,N/A,Fog,Light Freezing Fog,320,2013-12-05 00:02:00
6:53 PM,12.9,8.1,81,29.77,0.5,NNW,27.6,33.4,0.02,,Haze,330,2013-12-05 00:53:00
7:36 PM,12.2,6.8,79,29.72,0.5,NNW,25.3,34.5,N/A,,Haze,330,2013-12-05 01:36:00
7:43 PM,12.2,6.8,79,29.73,0.5,NW,23.0,34.5,N/A,,Haze,320,2013-12-05 01:43:00
7:50 PM,10.4,6.8,85,29.73,0.5,NW,27.6,33.4,N/A,Fog,Light Freezing Fog,320,2013-12-05 01:50:00
7:53 PM,10.9,7.0,84,29.78,0.5,NW,24.2,33.4,N/A,Fog,Light Freezing Fog,320,2013-12-05 01:53:00
8:39 PM,10.4,6.8,85,29.73,0.5,NW,27.6,33.4,N/A,,Haze,320,2013-12-05 02:39:00
8:53 PM,10.0,6.1,84,29.80,0.5,NW,24.2,33.4,N/A,Fog,Light Freezing Fog,320,2013-12-05 02:53:00
9:53 PM,10.0,5.0,80,29.81,0.5,NW,21.9,-,0.00,Snow,Snow,310,2013-12-05 03:53:00
10:11 PM,10.4,5.0,79,29.77,0.8,WNW,20.7,29.9,N/A,Snow,Blowing Snow,300,2013-12-05 04:11:00
10:53 PM,8.1,3.0,80,29.83,0.5,NW,24.2,33.4,0.00,Snow,Snow,310,2013-12-05 04:53:00
11:53 PM,8.1,3.0,80,29.86,0.8,NW,24.2,32.2,0.00,Snow,Light Snow,310,2013-12-05 05:53:00